Weerstation Grootegast  Weerstation Grootegast


15 daagse weersverwachting BorƄs (SE)

  • Overzicht
  • Per uur
  • 15 dagen
  • Extra
  • Vergelijk
  • Kaarten
  • Dagkaart
  • Meer »
  • Info
  • Statistieken
  • Directe link
    Temp 6h Neerslag Wind  
 06:40     17:58    Daglengte: 11:18 Vandaag
07:00
-5°
 
2
13:00
 
4
19:00
-0°
 
1
 06:37     18:00    Daglengte: 11:23 Morgen
01:00
-2°
 
2
07:00
-5°
 
2
13:00
 
4
19:00
-1°
 
4
 06:34     18:03    Daglengte: 11:29 Donderdag 11 Maa
01:00
-2°
 
7
07:00
-1°
3.3 mm
9
warningclass
13:00
13.5 mm
7
warningclass
19:00
20.3 mm
5
 06:31     18:05    Daglengte: 11:34 Vrijdag 12 Maa
01:00
28.9 mm
6
Locatie info
Region: VƤstra Gƶtalands lƤn
Latitude: 57.7201°N
Longitude: 12.9453°E
143 masl
Postcode: 503 36
Temp/Neerslag /Baro Onweer/DauwpuntSneeuw
    Temp Baro 1h Neerslag Dauwpunt Wind UV BewolkingSneeuw  
 06:40     17:58    Daglengte: 11:18 Vandaag
06:00
-6°
Voelt als: -8.2°
1019.3 hPa   -7.6°
1
Windvlaag: 3.6 m/s
82%
07:00
-5°
Voelt als: -8.2°
1019.1 hPa   -7.1°
2
Windvlaag: 3.8 m/s
82%
08:00
-4°
Voelt als: -7.4°
1018.8 hPa   -5.9°
2
Windvlaag: 4 m/s
76%
09:00
-3°
Voelt als: -6.0°
1018.8 hPa
12%
-5.3°
2
Windvlaag: 4.3 m/s
75%
10:00
-0°
Voelt als: -3.9°
1018.4 hPa   -4.5°
3
Windvlaag: 4.8 m/s
67%
11:00
Voelt als: -2.7°
1018.1 hPa
14%
-4.8°
4
Windvlaag: 4.1 m/s
69%
12:00
Voelt als: -2.1°
1017.9 hPa
25%
-6.1°
4
Windvlaag: 2.8 m/s
78%
13:00
Voelt als: -1.7°
1018.0 hPa
30%
-5.8°
4
Windvlaag: 1.8 m/s
63%
14:00
Voelt als: -1.1°
1017.7 hPa
29%
-5.6°
4
Windvlaag: 1.7 m/s
54%
15:00
Voelt als: -0.6°
1017.5 hPa
17%
-5.7°
3
Windvlaag: 1.6 m/s
43%
16:00
Voelt als: -0.7°
1017.5 hPa
26%
-5.7°
3
Windvlaag: 1 m/s
37%
17:00
Voelt als: -1.2°
1017.7 hPa
28%
-5.1°
3
Windvlaag: 0.5 m/s
42%
18:00
Voelt als: -1.9°
1018.2 hPa   -4.1°
2
Windvlaag: 0.6 m/s
54%
19:00
-0°
Voelt als: -2.0°
1018.7 hPa
17%
-2.9°
1
Windvlaag: 0.9 m/s
44%
20:00
-1°
Voelt als: -2.1°
1019.2 hPa
32%
-2.8°
1
Windvlaag: 1 m/s
42%
21:00
-2°
Voelt als: -2.7°
1019.5 hPa
15%
-2.7°
1
Windvlaag: 0.6 m/s
49%
22:00
-2°
Voelt als: -3.7°
1019.8 hPa   -2.5°
1
Windvlaag: -0 m/s
23%
23:00
-2°
Voelt als: -4.5°
1020.1 hPa   -2.4°
2
Windvlaag: -0.6 m/s
41%
 06:37     18:00    Daglengte: 11:23 Morgen
00:00
-2°
Voelt als: -4.7°
1020.5 hPa   -2.5°
2
Windvlaag: 0.3 m/s
10%
01:00
-2°
Voelt als: -5.0°
1020.8 hPa   -3.1°
2
Windvlaag: 0.1 m/s
28%
02:00
-2°
Voelt als: -5.7°
1021.1 hPa   -4.2°
2
Windvlaag: 0.1 m/s
16%
03:00
-3°
Voelt als: -6.3°
1021.1 hPa   -4.6°
2
Windvlaag: 0.1 m/s
15%
04:00
-4°
Voelt als: -6.9°
1021.1 hPa   -5.2°
2
Windvlaag: 0 m/s
8%
05:00
-4°
Voelt als: -7.5°
1020.8 hPa   -5.4°
2
Windvlaag: 0.5 m/s
8%
06:00
-4°
Voelt als: -7.5°
1021.0 hPa   -5.8°
2
Windvlaag: 0.8 m/s
10%
07:00
-5°
Voelt als: -7.7°
1021.3 hPa   -6.1°
2
Windvlaag: 2.2 m/s
37%
08:00
-4°
Voelt als: -7.9°
1021.6 hPa
13%
-6.0°
2
Windvlaag: 3.2 m/s
68%
09:00
-3°
Voelt als: -7.3°
1021.2 hPa
14%
-5.9°
3
Windvlaag: 3.9 m/s
77%
10:00
-2°
Voelt als: -5.9°
1020.8 hPa
13%
-6.0°
3
Windvlaag: 4.5 m/s
45%
11:00
-0°
Voelt als: -4.5°
1020.4 hPa
13%
-5.7°
4
Windvlaag: 5.6 m/s
53%
12:00
Voelt als: -3.4°
1020.1 hPa
13%
-5.1°
4
Windvlaag: 6 m/s
81%
13:00
Voelt als: -2.9°
1019.5 hPa
13%
-4.9°
4
Windvlaag: 6.7 m/s
80%
14:00
Voelt als: -2.8°
1019.1 hPa
14%
-4.9°
4
Windvlaag: 6.9 m/s
85%
15:00
Voelt als: -2.9°
1018.7 hPa
13%
-4.8°
4
Windvlaag: 7.2 m/s
75%
16:00
Voelt als: -3.1°
1017.8 hPa
13%
-4.9°
4
Windvlaag: 7.1 m/s
75%
17:00
Voelt als: -3.8°
1017.2 hPa
13%
-4.8°
4
Windvlaag: 7.2 m/s
80%
18:00
-0°
Voelt als: -4.7°
1016.9 hPa
13%
-4.7°
4
Windvlaag: 6.5 m/s
82%
19:00
-1°
Voelt als: -5.4°
1016.4 hPa
13%
-4.8°
4
Windvlaag: 7.2 m/s
83%
20:00
-1°
Voelt als: -5.9°
1016.0 hPa
13%
-4.7°
5
Windvlaag: 8.5 m/s
84%
21:00
-1°
Voelt als: -6.5°
1015.3 hPa
13%
-4.9°
5
Windvlaag: 9.8 m/s
84%
22:00
-1°
Voelt als: -7.2°
1012.7 hPa
20%
-6.4°
6
Windvlaag: 10.7 m/s
92%
23:00
-2°
Voelt als: -7.8°
1011.6 hPa
37%
-7.2°
6
Windvlaag: 11.3 m/s
97%
 06:34     18:03    Daglengte: 11:29 Donderdag 11 Maa
00:00
-2°
Voelt als: -8.2°
1010.1 hPa
99%
-8.0°
7
Windvlaag: 11.2 m/s
100%
01:00
-2°
Voelt als: -8.4°
1008.3 hPa
100%
-8.4°
7
Windvlaag: 11.9 m/s
100%
02:00
-2°
Voelt als: -8.4°
1006.6 hPa
100%
-9.0°
7
Windvlaag: 11.9 m/s
100%
03:00
-2°
Voelt als: -8.4°
1004.5 hPa
100%
-7.4°
7
Windvlaag: 12.4 m/s
100%
04:00
-2°
Voelt als: -8.3°
1002.2 hPa 0.3 mm
100%
-4.7°
7
Windvlaag: 13.1 m/s
100% warningclass
05:00
-1°
Voelt als: -8.0°
1000.1 hPa 0.7 mm
100%
-3.0°
8
Windvlaag: 13.9 m/s
100% warningclass
06:00
-1°
Voelt als: -7.8°
997.7 hPa 0.9 mm
100%
-2.4°
8
Windvlaag: 14.7 m/s
100% warningclass
07:00
-1°
Voelt als: -7.6°
995.6 hPa 1.4 mm
100%
-1.7°
9
Windvlaag: 15.4 m/s
100%1 cm warningclass
08:00
-1°
Voelt als: -7.3°
993.9 hPa 1.7 mm
100%
-1.4°
9
Windvlaag: 15.5 m/s
100%3 cm warningclass
09:00
-0°
Voelt als: -6.8°
992.1 hPa 2.0 mm
100%
-0.9°
8
Windvlaag: 15 m/s
95%4 cm warningclass
10:00
Voelt als: -6.6°
990.3 hPa 2.1 mm
100%
-0.4°
9
Windvlaag: 16.8 m/s
98%5 cm warningclass
11:00
Voelt als: -5.9°
988.8 hPa 2.3 mm
100%
-0.0°
8
Windvlaag: 16.7 m/s
97%6 cm warningclass
12:00
Voelt als: -5.6°
987.6 hPa 2.7 mm
100%
-0.6°
8
Windvlaag: 16.4 m/s
99%6 cm warningclass
13:00
Voelt als: -5.2°
986.4 hPa 2.7 mm
100%
-0.5°
7
Windvlaag: 15.6 m/s
100%6 cm warningclass
14:00
Voelt als: -4.8°
985.1 hPa 2.9 mm
100%
-0.1°
6
Windvlaag: 14.1 m/s
100%6 cm warningclass
15:00
Voelt als: -4.1°
983.8 hPa 3.3 mm
100%
0.9°
6
Windvlaag: 12.4 m/s
99%6 cm warningclass
16:00
Voelt als: -3.6°
982.9 hPa 3.5 mm
100%
1.0°
6
Windvlaag: 11.2 m/s
100%6 cm
17:00
Voelt als: -3.2°
981.9 hPa 3.3 mm
100%
1.6°
5
Windvlaag: 10.6 m/s
100%6 cm
18:00
Voelt als: -3.0°
980.8 hPa 3.5 mm
100%
1.5°
5
Windvlaag: 9.5 m/s
99%6 cm
19:00
Voelt als: -2.9°
980.5 hPa 3.9 mm
100%
1.6°
5
Windvlaag: 9.3 m/s
96%5 cm
20:00
Voelt als: -2.7°
980.2 hPa 4.1 mm
100%
1.6°
5
Windvlaag: 8.7 m/s
100%5 cm
21:00
Voelt als: -1.7°
979.8 hPa 4.5 mm
100%
2.0°
4
Windvlaag: 7.9 m/s
100%5 cm
22:00
Voelt als: -1.1°
979.7 hPa 4.7 mm
100%
2.5°
4
Windvlaag: 7.1 m/s
100%5 cm
23:00
Voelt als: -2.1°
979.9 hPa 5.0 mm
100%
2.4°
6
Windvlaag: 7.2 m/s
100%5 cm
 06:31     18:05    Daglengte: 11:34 Vrijdag 12 Maa
00:00
Voelt als: -2.4°
980.5 hPa 5.4 mm
100%
2.1°
6
Windvlaag: 5.5 m/s
100%5 cm
01:00
Voelt als: -2.3°
981.2 hPa 5.2 mm
100%
2.3°
6
Windvlaag: 5.1 m/s
96%5 cm
02:00
Voelt als: -3.0°
981.4 hPa 7.8 mm
100%
2.3°
7
Windvlaag: 12.2 m/s
100%5 cm
03:00
Voelt als: -3.1°
982.1 hPa
100%
2.3°
7
Windvlaag: 12.9 m/s
100%5 cm
04:00
Voelt als: -3.1°
982.8 hPa
100%
1.8°
7
Windvlaag: 12 m/s
100%5 cm
05:00
Voelt als: -3.2°
983.3 hPa
98%
1.2°
7
Windvlaag: 11.9 m/s
97%5 cm
Temp/Neerslag /Baro Onweer/DauwpuntSneeuw
    Temp Baro Neerslag Dauwpunt Wind BewolkingSneeuw  
 06:40     17:58    Daglengte: 11:18 Vandaag
07:00
-5°
Voelt als: -8.2°
1019.1 hPa   -7.1°
2
82%
10:00
-0°
Voelt als: -3.9°
1018.4 hPa   -4.5°
3
67%
13:00
Voelt als: -1.7°
1018.0 hPa   -5.8°
4
63%
16:00
Voelt als: -0.7°
1017.5 hPa   -5.7°
3
37%
19:00
-0°
Voelt als: -2.0°
1018.7 hPa   -2.9°
1
44%
22:00
-2°
Voelt als: -3.7°
1019.8 hPa   -2.5°
1
23%
 06:37     18:00    Daglengte: 11:23 Morgen
01:00
-2°
Voelt als: -5.0°
1020.8 hPa   -3.1°
2
28%
04:00
-4°
Voelt als: -6.9°
1021.1 hPa   -5.2°
2
8%
07:00
-5°
Voelt als: -7.7°
1021.3 hPa   -6.1°
2
37%
10:00
-2°
Voelt als: -5.9°
1020.8 hPa   -6.0°
3
45%
13:00
Voelt als: -2.9°
1019.5 hPa   -4.9°
4
80%
16:00
Voelt als: -3.1°
1017.8 hPa   -4.9°
4
75%
19:00
-1°
Voelt als: -5.4°
1016.4 hPa   -4.8°
4
83%
22:00
-1°
Voelt als: -7.2°
1012.7 hPa   -6.4°
6
92%
 06:34     18:03    Daglengte: 11:29 Donderdag 11 Maa
01:00
-2°
Voelt als: -8.4°
1008.3 hPa   -8.4°
7
100%
04:00
-2°
Voelt als: -8.3°
1002.2 hPa 0.3 mm -4.7°
7
100% warningclass
07:00
-1°
Voelt als: -7.6°
995.6 hPa 3.0 mm -1.7°
9
100%1 cm warningclass
10:00
Voelt als: -6.6°
990.3 hPa 5.8 mm -0.4°
9
98%5 cm warningclass
13:00
Voelt als: -5.2°
986.4 hPa 7.7 mm -0.5°
7
100%6 cm warningclass
16:00
Voelt als: -3.6°
982.9 hPa 9.7 mm 1.0°
6
100%6 cm
19:00
Voelt als: -2.9°
980.5 hPa 10.6 mm 1.6°
5
96%5 cm
22:00
Voelt als: -1.1°
979.7 hPa 13.2 mm 2.5°
4
100%5 cm
 06:31     18:05    Daglengte: 11:34 Vrijdag 12 Maa
01:00
Voelt als: -2.3°
981.2 hPa 15.6 mm 2.3°
6
96%5 cm
04:00
Voelt als: -3.1°
982.8 hPa 7.8 mm 1.8°
7
100%5 cm
07:00
Voelt als: -3.3°
984.5 hPa   1.2°
7
100%5 cm
10:00
Voelt als: -2.9°
991.7 hPa 18.3 mm 1.4°
6
1%
13:00
Voelt als: -3.2°
991.6 hPa 19.8 mm 1.6°
7
1%
16:00
Voelt als: -1.2°
991.7 hPa 20.7 mm 0.9°
8
1%
19:00
Voelt als: -2.5°
992.8 hPa 20.8 mm 0.2°
6
1%
22:00
Voelt als: -2.1°
993.8 hPa 20.9 mm 1.1°
6
1%
 06:29     18:07    Daglengte: 11:38 Zaterdag 13 Maa
01:00
Voelt als: -2.2°
993.8 hPa 21.1 mm 0.9°
5
1%
04:00
Voelt als: -2.4°
993.1 hPa 21.2 mm 1.2°
5
1%
07:00
Voelt als: -2.2°
993.3 hPa 21.2 mm 1.3°
4
1%
10:00
Voelt als: -0.6°
993.7 hPa 21.4 mm 1.5°
5
1%
13:00
Voelt als: 0.5°
992.6 hPa 21.6 mm 1.6°
5
1%
16:00
Voelt als: -1.4°
989.5 hPa 22.2 mm 2.4°
5
1%
19:00
Voelt als: -1.7°
986.3 hPa 25.3 mm 1.8°
4
1%
22:00
Voelt als: -0.2°
985.0 hPa 27.8 mm 2.7°
3
1%
 06:26     18:09    Daglengte: 11:43 Zondag 14 Maa
01:00
Voelt als: -0.8°
984.4 hPa 28.8 mm 2.1°
3
1%
04:00
Voelt als: -2.2°
984.2 hPa 32.5 mm 1.0°
3
1% warningclass
07:00
Voelt als: -1.1°
985.2 hPa 33.5 mm 1.8°
3
1%
10:00
Voelt als: -0.0°
987.0 hPa 33.7 mm 1.8°
2
1%
13:00
Voelt als: 0.0°
988.8 hPa 34.1 mm 1.9°
2
1%
16:00
Voelt als: 0.9°
990.7 hPa 34.4 mm 2.2°
3
1%
19:00
Voelt als: -1.0°
992.6 hPa 34.6 mm 1.5°
3
1%
22:00
Voelt als: -1.9°
995.4 hPa 34.9 mm 1.1°
3
1%
 06:23     18:12    Daglengte: 11:49 Maandag 15 Maa
01:00
Voelt als: -2.4°
997.1 hPa 35.0 mm 0.2°
3
1% warningclass
04:00
-1°
Voelt als: -3.7°
999.2 hPa 35.0 mm -1.4°
3
1% warningclass
07:00
-1°
Voelt als: -3.7°
1001.5 hPa 35.0 mm -1.9°
2
1% warningclass
10:00
Voelt als: 0.1°
1003.9 hPa 35.0 mm -0.7°
3
0%
13:00
Voelt als: 2.8°
1006.1 hPa 35.0 mm -0.3°
3
0%
16:00
Voelt als: 2.6°
1007.9 hPa 35.0 mm -1.3°
3
0%
19:00
Voelt als: -0.8°
1010.1 hPa 35.0 mm -2.4°
1
0% warningclass
22:00
-0°
Voelt als: -1.6°
1013.0 hPa 35.0 mm -1.9°
1
0% warningclass
 06:20     18:14    Daglengte: 11:54 Dinsdag 16 Maa
01:00
-1°
Voelt als: -2.5°
1015.1 hPa 35.0 mm -3.0°
2
0% warningclass
04:00
-1°
Voelt als: -3.2°
1017.2 hPa   -3.6°
2
0% warningclass
07:00
-1°
Voelt als: -2.7°
1019.3 hPa 70.0 mm -2.9°
1
0% warningclass
13:00
Voelt als: 6.3°
1020.4 hPa 70.0 mm -0.9°
2
0%
19:00
Voelt als: -1.8°
1016.7 hPa 70.0 mm -1.6°
4
1%
 06:18     18:16    Daglengte: 11:58 Woensdag 17 Maa
01:00
Voelt als: -0.7°
1007.5 hPa 70.7 mm 2.8°
5
1%
07:00
Voelt als: -0.7°
998.2 hPa 71.6 mm 1.6°
6
1%
13:00
Voelt als: 4.5°
997.8 hPa 71.7 mm -1.6°
5
0%
19:00
Voelt als: 0.7°
1006.3 hPa 71.7 mm -1.0°
7
0%
 06:15     18:18    Daglengte: 12:03 Donderdag 18 Maa
01:00
-1°
Voelt als: -7.3°
1018.0 hPa 71.7 mm -8.7°
7
0% warningclass
07:00
-3°
Voelt als: -9.2°
1025.5 hPa 71.7 mm -11.1°
6
0% warningclass
13:00
Voelt als: -1.3°
1028.3 hPa 71.7 mm -12.6°
4
0%
19:00
-1°
Voelt als: -1.8°
1027.5 hPa 71.7 mm -10.5°
1
1% warningclass
 06:12     18:20    Daglengte: 12:08 Vrijdag 19 Maa
01:00
Voelt als: -0.2°
1016.8 hPa 0.2 mm -0.2°
2
51%
07:00
Voelt als: -0.6°
1016.4 hPa 0.3 mm -1.0°
2
56%
13:00
Voelt als: 4.5°
1016.9 hPa 0.1 mm -0.8°
3
59%
19:00
Voelt als: 0.5°
1016.3 hPa 0.2 mm -1.3°
2
51%
 06:09     18:23    Daglengte: 12:14 Zaterdag 20 Maa
01:00
Voelt als: -0.3°
1017.1 hPa 0.2 mm -1.6°
1
45%
07:00
Voelt als: -0.2°
1016.9 hPa 0.1 mm -1.7°
1
44%
13:00
Voelt als: 5.9°
1016.7 hPa   -0.5°
1
45%
19:00
Voelt als: 1.1°
1016.0 hPa 0.2 mm -0.8°
2
49%
 06:06     18:25    Daglengte: 12:19 Zondag 21 Maa
01:00
Voelt als: -0.8°
1015.8 hPa   -1.5°
2
49%
07:00
Voelt als: -0.4°
1014.8 hPa 0.1 mm -1.8°
1
58%
13:00
Voelt als: 4.5°
1014.1 hPa 0.1 mm -0.9°
2
64%
19:00
Voelt als: 0.8°
1013.5 hPa 0.2 mm -0.9°
2
59%
 06:04     18:27    Daglengte: 12:23 Maandag 22 Maa
01:00
Voelt als: -1.1°
1014.0 hPa 0.1 mm -1.6°
2
52%
07:00
Voelt als: -0.2°
1014.3 hPa 0.3 mm -1.9°
1
57%
13:00
Voelt als: 4.7°
1014.7 hPa 0.3 mm -1.8°
2
52%
19:00
Voelt als: 0.6°
1014.5 hPa 0.3 mm -1.6°
2
54%
 06:01     18:29    Daglengte: 12:28 Dinsdag 23 Maa
01:00
Voelt als: -0.9°
1015.3 hPa 0.1 mm -1.9°
2
46%
07:00
Voelt als: -0.9°
1015.5 hPa   -1.7°
2
44%
13:00
Voelt als: 4.9°
1015.3 hPa 0.1 mm -1.4°
3
50%
19:00
Voelt als: 1.0°
1014.3 hPa 0.2 mm -1.2°
2
51%
 05:58     18:31    Daglengte: 12:33 Woensdag 24 Maa
01:00
Voelt als: -0.3°
1014.2 hPa 0.3 mm -1.6°
1
53%
  CAPE Lifted Index Hail Supercell Tornado SRH 3km CL BTM PRES CL TOP PRES Swiss DWD icon SMHI TS
 06:40     17:58    Daglengte: 11:18 Vandaag
06:00 0 J/kg 7.2 K 0 % 0 % 0 % 0 m²/s² 0 0 7.77 3
07:00 0 J/kg 6.8 K 0 % 0 % 0 % 0 m²/s² 0 0 7.4 3
08:00 0 J/kg 6.8 K 0 % 0 % 0 % 0 m²/s² 0 0 7.52 3
09:00 0 J/kg 6.2 K 0 % 0 % 0 % 0 m²/s² 0 0 6.83 85
10:00 2 J/kg 6.4 K 0 % 0 % 0 % 0 m²/s² 0 0 7.69 3
11:00 3 J/kg 6.2 K 0 % 0 % 0 % 0 m²/s² 0 0 6.95 3
12:00 9 J/kg 6.9 K 0 % 0 % 0 % 0 m²/s² 0 0 8.04 3
13:00 8 J/kg 7.2 K 0 % 0 % 0 % 0 m²/s² 0 0 9.18 71
14:00 0 J/kg 7.4 K 0 % 0 % 0 % 0 m²/s² 0 0 9.98 3
15:00 0 J/kg 7.4 K 0 % 0 % 0 % 0 m²/s² 0 0 10.31 2
16:00 0 J/kg 7.1 K 0 % 0 % 0 % 0 m²/s² 0 0 9.77 3
17:00 0 J/kg 6.7 K 0 % 0 % 0 % 0 m²/s² 0 0 9.52 2
18:00 0 J/kg 6.7 K 0 % 0 % 0 % 0 m²/s² 0 0 9.52 3
19:00 0 J/kg 7.1 K 0 % 0 % 0 % 0 m²/s² 0 0 9.92 3
20:00 0 J/kg 7.2 K 0 % 0 % 0 % 0 m²/s² 0 0 10.02 3
21:00 0 J/kg 7.5 K 0 % 0 % 0 % 0 m²/s² 0 0 10.56 3
22:00 0 J/kg 8.1 K 0 % 0 % 0 % 0 m²/s² 0 0 11.25 2
23:00 0 J/kg 9.4 K 0 % 0 % 0 % 0 m²/s² 0 0 12.79 2
 06:37     18:00    Daglengte: 11:23 Morgen
00:00 0 J/kg 10.8 K 0 % 0 % 0 % 0 m²/s² 0 0 14.58 2
01:00 0 J/kg 11.3 K 0 % 0 % 0 % 0 m²/s² 0 0 15.38 2
02:00 0 J/kg 11.7 K 0 % 0 % 0 % 0 m²/s² 0 0 16.35 2
03:00 0 J/kg 11.7 K 0 % 0 % 0 % 0 m²/s² 0 0 16.47 3
04:00 0 J/kg 11.8 K 0 % 0 % 0 % 0 m²/s² 0 0 16.87 2
05:00 0 J/kg 12.2 K 0 % 0 % 0 % 0 m²/s² 0 0 18.08 1
06:00 0 J/kg 12.6 K 0 % 0 % 0 % 0 m²/s² 0 0 18.9 1
07:00 0 J/kg 13.4 K 0 % 0 % 0 % 0 m²/s² 0 0 20.15 2
08:00 0 J/kg 14.3 K 0 % 0 % 0 % 0 m²/s² 0 0 21.32 3
09:00 0 J/kg 14.8 K 0 % 0 % 0 % 0 m²/s² 0 0 21.82 3
10:00 0 J/kg 14.6 K 0 % 0 % 0 % 0 m²/s² 0 0 22.22 3
11:00 0 J/kg 14.6 K 0 % 0 % 0 % 0 m²/s² 0 0 22.25 3
12:00 0 J/kg 14.9 K 0 % 0 % 0 % 0 m²/s² 0 0 22.55 3
13:00 0 J/kg 14.9 K 0 % 0 % 0 % 0 m²/s² 0 0 22.28 3
14:00 3 J/kg 14.2 K 0 % 0 % 0 % 0 m²/s² 0 0 21.61 3
15:00 10 J/kg 13.8 K 0 % 0 % 0 % 0 m²/s² 0 0 20.46 3
16:00 0 J/kg 13.9 K 0 % 0 % 0 % 0 m²/s² 0 0 18.85 3
17:00 0 J/kg 14.7 K 0 % 0 % 0 % 0 m²/s² 0 0 19.08 3
18:00 0 J/kg 15.1 K 0 % 0 % 0 % 0 m²/s² 0 0 18.67 3
19:00 0 J/kg 14.7 K 0 % 0 % 0 % 0 m²/s² 0 0 16.02 3
20:00 0 J/kg 14.9 K 0 % 0 % 0 % 0 m²/s² 0 0 15.38 3
21:00 0 J/kg 14.4 K 0 % 0 % 0 % 0 m²/s² 0 0 14.88 3
22:00 0 J/kg 13.8 K 0 % 0 % 0 % 0 m²/s² 0 0 14.28 3
23:00 0 J/kg 13.1 K 0 % 0 % 0 % 0 m²/s² 0 0 13.61 3
 06:34     18:03    Daglengte: 11:29 Donderdag 11 Maa
00:00 0 J/kg 12.0 K 0 % 0 % 0 % 0 m²/s² 0 0 12.57 71
01:00 0 J/kg 12.8 K 0 % 0 % 0 % 0 m²/s² 0 0 13.46 3
02:00 0 J/kg 13.3 K 0 % 0 % 0 % 0 m²/s² 0 0 13.75 71
03:00 0 J/kg 13.1 K 0 % 0 % 0 % 0 m²/s² 0 0 13.58 71
04:00 0 J/kg 13.3 K 0 % 0 % 0 % 0 m²/s² 0 0 13.75 71
05:00 0 J/kg 13.7 K 0 % 0 % 0 % 0 m²/s² 0 0 14.09 71
06:00 0 J/kg 13.4 K 0 % 0 % 0 % 0 m²/s² 0 0 13.76 73
07:00 0 J/kg 12.8 K 0 % 0 % 0 % 0 m²/s² 0 0 13.1 73
08:00 0 J/kg 12.1 K 0 % 0 % 0 % 0 m²/s² 0 0 12.43 77
09:00 0 J/kg 10.6 K 0 % 0 % 0 % 0 m²/s² 0 0 10.93 77
10:00 1 J/kg 9.8 K 0 % 0 % 0 % 0 m²/s² 0 0 10.22 71
11:00 1 J/kg 7.5 K 0 % 0 % 0 % 0 m²/s² 0 0 11.73 77
12:00 0 J/kg 7.8 K 0 % 0 % 0 % 0 m²/s² 0 0 14.55 77
13:00 0 J/kg 6.8 K 0 % 0 % 0 % 0 m²/s² 0 0 9.92 73
14:00 0 J/kg 6.6 K 0 % 0 % 0 % 0 m²/s² 0 0 7.08 53
15:00 1 J/kg 3.0 K 0 % 0 % 0 % 0 m²/s² 0 0 3.63 55
16:00 110 J/kg 2.3 K 0 % 0 % 0 % 0 m²/s² 0 0 2.93 61
17:00 87 J/kg 2.0 K 0 % 0 % 0 % 0 m²/s² 0 0 2.72 61
18:00 17 J/kg 2.9 K 0 % 0 % 0 % 0 m²/s² 0 0 3.38 55
19:00 12 J/kg 3.4 K 0 % 0 % 0 % 0 m²/s² 0 0 3.85 55
20:00 2 J/kg 2.2 K 0 % 0 % 0 % 0 m²/s² 0 0 2.68 53
21:00 3 J/kg 2.7 K 0 % 0 % 0 % 0 m²/s² 0 0 3.18 61
22:00 2 J/kg 2.9 K 0 % 0 % 0 % 0 m²/s² 0 0 3.44 61
23:00 3 J/kg 2.4 K 0 % 0 % 0 % 0 m²/s² 0 0 2.91 61
 06:31     18:05    Daglengte: 11:34 Vrijdag 12 Maa
00:00 8 J/kg 1.9 K 0 % 0 % 0 % 0 m²/s² 0 0 2.47 55
01:00 9 J/kg 1.3 K 0 % 0 % 0 % 0 m²/s² 0 0 2.05 61
02:00 3 J/kg 0.2 K 0 % 0 % 0 % 0 m²/s² 0 0 0.95 80
03:00 0 J/kg -0.5 K 0 % 0 % 0 % 0 m²/s² 0 0 0.16 3
04:00 32 J/kg -0.4 K 0 % 0 % 0 % 0 m²/s² 0 0 4.28 3
05:00 3 J/kg 0.1 K 0 % 0 % 0 % 0 m²/s² 0 0 4.42 3
Temp Baro Wind Neerslag
  EWN Forecast EWN WRFDA DWD ICON FMI HIRLAM MET Norway GFS
 06:40     17:58    Daglengte: 11:18 Vandaag
07:00 -5.4° 1019.1 hPa 1.7 m/s 0.0 mm -0.9° 1016.1 hPa 3.4 m/s 0.0 mm -4.6° 1019.5 hPa 1.5 m/s -2.0 mm -10.0° 1019.4 hPa 1.1 m/s 0.0 mm -1.9° 1018.0 hPa 3.0 m/s
10:00 -0.3° 1018.4 hPa 3.1 m/s 0.0 mm 1.6° 1016.0 hPa 5.2 m/s 0.0 mm -0.4° 1018.7 hPa 3.0 m/s 0.1 mm 0.0° 1018.3 hPa 2.9 m/s 0.0 mm 1.3° 1018.2 hPa 3.8 m/s
13:00 2.0° 1018.0 hPa 3.8 m/s 0.0 mm 3.2° 1015.6 hPa 5.7 m/s 0.0 mm 0.9° 1018.4 hPa 3.6 m/s 0.2 mm 3.4° 1017.2 hPa 3.4 m/s 0.0 mm 3.2° 1018.2 hPa 4.1 m/s
16:00 2.4° 1017.5 hPa 3.2 m/s 0.0 mm 3.0° 1014.8 hPa 4.5 m/s 0.0 mm 1.4° 1018.3 hPa 2.5 m/s 0.1 mm 3.3° 1016.6 hPa 3.1 m/s 0.0 mm 2.5° 1017.8 hPa 3.5 m/s
19:00 -0.3° 1018.7 hPa 1.4 m/s 0.0 mm -0.9° 1015.5 hPa 2.6 m/s 0.0 mm 0.1° 1019.5 hPa 1.3 m/s 0.0 mm -1.1° 1017.5 hPa 1.0 m/s 0.0 mm -1.7° 1019.0 hPa 1.9 m/s
22:00 -1.8° 1019.8 hPa 1.4 m/s 0.0 mm -1.4° 1016.1 hPa 2.3 m/s 0.0 mm -1.1° 1020.7 hPa 1.4 m/s 0.0 mm -2.3° 1018.3 hPa 0.9 m/s 0.0 mm -2.5° 1020.2 hPa 0.6 m/s
 06:37     18:00    Daglengte: 11:23 Morgen
01:00 -1.9° 1020.8 hPa 2.3 m/s 0.0 mm -1.8° 1016.1 hPa 2.1 m/s 0.0 mm -2.3° 1021.5 hPa 1.8 m/s 0.0 mm -1.3° 1019.8 hPa 2.2 m/s 0.0 mm -2.7° 1020.7 hPa 1.8 m/s
04:00 -3.6° 1021.1 hPa 2.1 m/s 0.0 mm -2.4° 1016.1 hPa 2.5 m/s 0.0 mm -3.5° 1021.8 hPa 2.0 m/s 0.0 mm -3.8° 1020.3 hPa 2.0 m/s 0.0 mm -3.3° 1020.3 hPa 2.4 m/s
07:00 -4.6° 1021.3 hPa 1.9 m/s 0.0 mm -2.4° 1016.5 hPa 3.6 m/s 0.0 mm -4.6° 1021.8 hPa 1.5 m/s 0.0 mm -6.4° 1020.8 hPa 1.6 m/s 0.0 mm -3.8° 1020.9 hPa 2.5 m/s
10:00 -1.7° 1020.8 hPa 3.4 m/s 0.0 mm -0.3° 1015.9 hPa 4.1 m/s 0.1 mm -2.0° 1021.0 hPa 4.2 m/s 0.0 mm -1.0° 1020.5 hPa 2.6 m/s 0.0 mm -0.0° 1020.0 hPa 2.9 m/s
13:00 0.9° 1019.5 hPa 3.6 m/s 0.0 mm 2.4° 1014.6 hPa 4.7 m/s 0.1 mm -0.1° 1019.9 hPa 4.0 m/s 0.0 mm 0.9° 1019.6 hPa 2.6 m/s 0.0 mm 2.7° 1019.2 hPa 3.5 m/s
16:00 0.7° 1017.8 hPa 3.7 m/s 0.0 mm 2.9° 1012.9 hPa 4.0 m/s 0.1 mm 0.2° 1017.1 hPa 4.3 m/s 0.0 mm 0.5° 1018.3 hPa 2.8 m/s 0.0 mm 2.6° 1017.4 hPa 3.8 m/s
19:00 -0.8° 1016.4 hPa 4.3 m/s 0.0 mm 1.2° 1010.8 hPa 4.8 m/s 0.1 mm -1.4° 1015.1 hPa 5.4 m/s 0.0 mm -1.0° 1017.2 hPa 3.0 m/s 0.0 mm 0.1° 1015.7 hPa 4.4 m/s
22:00 -1.2° 1012.7 hPa 6.3 m/s 0.0 mm 0.5° 1008.9 hPa 6.8 m/s 0.1 mm -2.2° 1012.5 hPa 6.4 m/s 0.0 mm -0.6° 1013.9 hPa 6.0 m/s
 06:34     18:03    Daglengte: 11:29 Donderdag 11 Maa
01:00 -2.1° 1008.3 hPa 6.6 m/s 0.0 mm 0.4° 1005.2 hPa 7.1 m/s 0.1 mm -2.4° 1007.9 hPa 6.2 m/s 0.1 mm -0.3° 1010.2 hPa 6.6 m/s
04:00 -1.7° 1002.2 hPa 7.4 m/s 0.3 mm 0.4° 999.7 hPa 9.1 m/s 0.2 mm -1.9° 1001.6 hPa 7.2 m/s 1.1 mm 0.0° 1004.9 hPa 7.3 m/s
07:00 -0.8° 995.6 hPa 8.6 m/s 3.0 mm 0.8° 994.2 hPa 10.3 m/s 2.9 mm -1.0° 994.6 hPa 8.4 m/s 4.2 mm 0.7° 1000.0 hPa 8.5 m/s
10:00 0.0° 990.3 hPa 8.8 m/s 5.8 mm 1.2° 989.1 hPa 9.1 m/s 18.8 mm -0.2° 989.6 hPa 7.6 m/s 2.1 mm 2.2° 995.1 hPa 8.9 m/s
13:00 0.5° 986.4 hPa 6.9 m/s 7.7 mm 2.4° 985.8 hPa 7.7 m/s 26.5 mm 0.2° 985.6 hPa 6.2 m/s 3.4 mm 2.5° 991.6 hPa 8.3 m/s
16:00 1.3° 982.9 hPa 5.6 m/s 9.7 mm 5.4° 982.6 hPa 7.7 m/s 34.2 mm 0.8° 981.4 hPa 5.0 m/s 1.9 mm 5.0° 988.4 hPa 6.4 m/s
19:00 1.7° 980.5 hPa 5.3 m/s 10.6 mm 3.7° 980.9 hPa 8.5 m/s 40.9 mm 1.6° 978.2 hPa 4.1 m/s 3.4 mm 3.8° 986.9 hPa 6.7 m/s
22:00 2.5° 979.7 hPa 3.8 m/s 13.2 mm 3.2° 981.1 hPa 6.5 m/s 58.2 mm 1.4° 978.0 hPa 3.6 m/s 1.8 mm 3.3° 987.7 hPa 6.2 m/s
 06:31     18:05    Daglengte: 11:34 Vrijdag 12 Maa
01:00 2.6° 981.2 hPa 6.2 m/s 15.6 mm 2.9° 982.7 hPa 6.7 m/s 66.9 mm 2.2° 980.1 hPa 7.4 m/s 3.8 mm 3.0° 989.0 hPa 5.8 m/s
04:00 2.1° 982.8 hPa 6.8 m/s 7.8 mm 2.7° 983.6 hPa 6.4 m/s 69.2 mm 2.0° 982.6 hPa 6.9 m/s 0.4 mm 2.3° 989.6 hPa 5.6 m/s
07:00 2.0° 984.5 hPa 6.8 m/s 0.0 mm 1.9° 985.6 hPa 6.4 m/s 70.1 mm 2.0° 984.2 hPa 6.9 m/s 0.0 mm 2.3° 991.0 hPa 5.4 m/s
10:00 2.0° 991.7 hPa 6.0 m/s 18.3 mm 2.0° 991.7 hPa 6.0 m/s 18.3 mm
13:00 2.2° 991.6 hPa 7.2 m/s 19.8 mm 2.2° 991.6 hPa 7.2 m/s 19.8 mm
16:00 3.9° 991.7 hPa 7.7 m/s 20.7 mm 3.9° 991.7 hPa 7.7 m/s 20.7 mm
19:00 2.4° 992.8 hPa 6.0 m/s 20.8 mm 2.4° 992.8 hPa 6.0 m/s 20.8 mm
22:00 2.6° 993.8 hPa 5.7 m/s 20.9 mm 2.6° 993.8 hPa 5.7 m/s 20.9 mm
 06:29     18:07    Daglengte: 11:38 Zaterdag 13 Maa
01:00 2.0° 993.8 hPa 4.5 m/s 21.1 mm 2.0° 993.8 hPa 4.5 m/s 21.1 mm
04:00 1.9° 993.1 hPa 4.7 m/s 21.2 mm 1.9° 993.1 hPa 4.7 m/s 21.2 mm
07:00 1.9° 993.3 hPa 4.4 m/s 21.2 mm 1.9° 993.3 hPa 4.4 m/s 21.2 mm
10:00 3.3° 993.7 hPa 4.8 m/s 21.4 mm 3.3° 993.7 hPa 4.8 m/s 21.4 mm
13:00 4.4° 992.6 hPa 5.1 m/s 21.6 mm 4.4° 992.6 hPa 5.1 m/s 21.6 mm
16:00 2.8° 989.5 hPa 5.1 m/s 22.2 mm 2.8° 989.5 hPa 5.1 m/s 22.2 mm
19:00 2.3° 986.3 hPa 4.3 m/s 25.3 mm 2.3° 986.3 hPa 4.3 m/s 25.3 mm
22:00 3.0° 985.0 hPa 3.4 m/s 27.8 mm 3.0° 985.0 hPa 3.4 m/s 27.8 mm
 06:26     18:09    Daglengte: 11:43 Zondag 14 Maa
01:00 2.4° 984.4 hPa 3.2 m/s 28.8 mm 2.4° 984.4 hPa 3.2 m/s 28.8 mm
04:00 1.1° 984.2 hPa 3.1 m/s 32.5 mm 1.1° 984.2 hPa 3.1 m/s 32.5 mm
07:00 2.1° 985.2 hPa 3.1 m/s 33.5 mm 2.1° 985.2 hPa 3.1 m/s 33.5 mm
10:00 2.3° 987.0 hPa 2.2 m/s 33.7 mm 2.3° 987.0 hPa 2.2 m/s 33.7 mm
13:00 2.4° 988.8 hPa 2.2 m/s 34.1 mm 2.4° 988.8 hPa 2.2 m/s 34.1 mm
16:00 3.4° 990.7 hPa 2.5 m/s 34.4 mm 3.4° 990.7 hPa 2.5 m/s 34.4 mm
19:00 1.8° 992.6 hPa 2.6 m/s 34.6 mm 1.8° 992.6 hPa 2.6 m/s 34.6 mm
22:00 1.6° 995.4 hPa 3.4 m/s 34.9 mm 1.6° 995.4 hPa 3.4 m/s 34.9 mm
 06:23     18:12    Daglengte: 11:49 Maandag 15 Maa
01:00 1.1° 997.1 hPa 3.2 m/s 35.0 mm 1.1° 997.1 hPa 3.3 m/s 35.0 mm
04:00 -0.5° 999.2 hPa 2.5 m/s 35.0 mm -0.5° 999.2 hPa 2.5 m/s 35.0 mm
07:00 -0.8° 1001.5 hPa 2.2 m/s 35.0 mm -0.8° 1001.5 hPa 2.2 m/s 35.0 mm
10:00 2.8° 1003.9 hPa 2.6 m/s 35.0 mm 2.8° 1003.9 hPa 2.6 m/s 35.0 mm
13:00 5.5° 1006.1 hPa 3.4 m/s 35.0 mm 5.5° 1006.1 hPa 3.4 m/s 35.0 mm
16:00 5.1° 1007.9 hPa 3.1 m/s 35.0 mm 5.1° 1007.9 hPa 3.1 m/s 35.0 mm
19:00 0.5° 1010.1 hPa 1.3 m/s 35.0 mm 0.5° 1010.1 hPa 1.3 m/s 35.0 mm
22:00 -0.1° 1013.0 hPa 1.4 m/s 35.0 mm -0.1° 1013.0 hPa 1.3 m/s 35.0 mm
 06:20     18:14    Daglengte: 11:54 Dinsdag 16 Maa
01:00 -0.5° 1015.1 hPa 1.6 m/s 35.0 mm -0.5° 1015.1 hPa 1.6 m/s 35.0 mm
04:00 -1.3° 1017.2 hPa 1.5 m/s 35.0 mm -1.3° 1017.2 hPa 1.5 m/s 35.0 mm
07:00 -1.0° 1019.3 hPa 1.4 m/s 35.0 mm -1.0° 1019.3 hPa 1.4 m/s 35.0 mm
13:00 7.3° 1020.4 hPa 1.8 m/s 35.0 mm 7.3° 1020.4 hPa 1.8 m/s 35.0 mm
19:00 2.0° 1016.7 hPa 3.9 m/s 35.0 mm 2.0° 1016.7 hPa 3.9 m/s 35.0 mm
 06:18     18:16    Daglengte: 11:58 Woensdag 17 Maa
01:00 3.6° 1007.5 hPa 5.5 m/s 35.6 mm 3.6° 1007.5 hPa 5.5 m/s 35.6 mm
07:00 3.8° 998.2 hPa 6.2 m/s 35.8 mm 3.8° 998.2 hPa 6.2 m/s 35.8 mm
13:00 7.6° 997.8 hPa 5.4 m/s 35.8 mm 7.6° 997.8 hPa 5.4 m/s 35.8 mm
19:00 5.0° 1006.3 hPa 6.5 m/s 35.8 mm 5.0° 1006.3 hPa 6.5 m/s 35.8 mm
 06:15     18:18    Daglengte: 12:03 Donderdag 18 Maa
01:00 -1.0° 1018.0 hPa 7.3 m/s 35.8 mm -1.0° 1018.0 hPa 7.3 m/s 35.8 mm
07:00 -2.9° 1025.5 hPa 6.2 m/s 35.8 mm -2.9° 1025.5 hPa 6.2 m/s 35.8 mm
13:00 2.1° 1028.3 hPa 3.6 m/s 35.8 mm 2.2° 1028.3 hPa 3.6 m/s 35.8 mm
19:00 -0.8° 1027.5 hPa 1.0 m/s 35.8 mm -0.8° 1027.5 hPa 1.0 m/s 35.8 mm
 06:12     18:20    Daglengte: 12:08 Vrijdag 19 Maa
01:00 2.1° 1016.8 hPa 2.2 m/s 0.2 mm
07:00 1.7° 1016.4 hPa 2.1 m/s 0.3 mm
13:00 6.6° 1016.9 hPa 2.9 m/s 0.1 mm
19:00 2.4° 1016.3 hPa 1.9 m/s 0.2 mm
 06:09     18:23    Daglengte: 12:14 Zaterdag 20 Maa
01:00 0.8° 1017.1 hPa 1.2 m/s 0.2 mm
07:00 0.7° 1016.9 hPa 1.1 m/s 0.1 mm
13:00 6.7° 1016.7 hPa 1.5 m/s 0.0 mm
19:00 2.5° 1016.0 hPa 1.5 m/s 0.2 mm
 06:06     18:25    Daglengte: 12:19 Zondag 21 Maa
01:00 1.1° 1015.8 hPa 1.7 m/s 0.0 mm
07:00 1.1° 1014.8 hPa 1.5 m/s 0.1 mm
13:00 6.0° 1014.1 hPa 2.1 m/s 0.1 mm
19:00 2.7° 1013.5 hPa 1.9 m/s 0.2 mm
 06:04     18:27    Daglengte: 12:23 Maandag 22 Maa
01:00 1.1° 1014.0 hPa 2.0 m/s 0.1 mm
07:00 1.0° 1014.3 hPa 1.3 m/s 0.3 mm
13:00 6.3° 1014.7 hPa 2.2 m/s 0.3 mm
19:00 2.5° 1014.5 hPa 1.9 m/s 0.3 mm
 06:01     18:29    Daglengte: 12:28 Dinsdag 23 Maa
01:00 1.0° 1015.3 hPa 1.7 m/s 0.1 mm
07:00 1.0° 1015.5 hPa 1.7 m/s 0.0 mm
13:00 6.8° 1015.3 hPa 2.7 m/s 0.1 mm
19:00 2.6° 1014.3 hPa 1.6 m/s 0.2 mm
 05:58     18:31    Daglengte: 12:33 Woensdag 24 Maa
01:00 1.1° 1014.2 hPa 1.3 m/s 0.3 mm
FMI Hirlam - 7.5 km EWN WRFDA - 12 km DWD ICON - 7 km GFS - 25 km Basiskaart






























































Updatetijd (Europe/Amsterdam) Resolutie Lengte Stap
FMI Hirlam 00:45, 06:45, 12:45, 18:45 7.5 km 49h 1h
EWN WRFDA 03:15, 09:15, 15:15, 21:15 12 km 73h 1h
DWD ICON 05:00, 11:00, 17:00, 23:00 7 km 75h 1h
GFS 01:00, 07:00, 13:00, 19:00 25 km 237h 3h
30+ mm
25-30 mm
20-25 mm
15-20 mm
10-15 mm
6-10 mm
4-6 mm
2-4 mm
1-2 mm
0.5-1 mm
0.2-0.5 mm
0.1-0.2 mm
30+ mm
25-30 mm
20-25 mm
15-20 mm
10-15 mm
6-10 mm
4-6 mm
2-4 mm
1-2 mm
0.5-1 mm
0.2-0.5 mm
0.1-0.2 mm
Sneeuwval
Natte sneeuw
Hagel
Vorst
30+ mm
25-30 mm
20-25 mm
15-20 mm
10-15 mm
6-10 mm
4-6 mm
2-4 mm
1-2 mm
0.5-1 mm
0.2-0.5 mm
0.1-0.2 mm
Sneeuwval
Natte sneeuw
Hagel
Vorst
Onweer
50 mm
40 mm
30 mm
26 mm
22 mm
18 mm
14 mm
10 mm
9 mm
8 mm
7 mm
6 mm
5 mm
4.5 mm
4 mm
3.5 mm
3 mm
2.5 mm
2 mm
1.5 mm
1 mm
0.8 mm
0.6 mm
0.4 mm
0.2 mm
0.05 mm
35°
30°
25°
20°
15°
10°
-5°
-10°
-15°
-20°
-25°
-30°
-35°
33> m/s
29 m/s
25 m/s
21 m/s
17 m/s
14 m/s
11 m/s
8 m/s
5 m/s
3 m/s
0 m/s
2600 J/kg
2400 J/kg
2200 J/kg
2000 J/kg
1800 J/kg
1600 J/kg
1400 J/kg
1200 J/kg
1000 J/kg
800 J/kg
600 J/kg
400 J/kg
200 J/kg
70 dBZ
65 dBZ
60 dBZ
55 dBZ
50 dBZ
45 dBZ
40 dBZ
35 dBZ
30 dBZ
25 dBZ
20 dBZ
15 dBZ
10 dBZ
5 dBZ
-1 K
-2 K
-3 K
-4 K
-5 K
-6 K
-7 K
-8 K
-9 K
950 m²/s²
900 m²/s²
850 m²/s²
800 m²/s²
750 m²/s²
700 m²/s²
650 m²/s²
600 m²/s²
550 m²/s²
500 m²/s²
450 m²/s²
400 m²/s²
350 m²/s²
300 m²/s²
250 m²/s²
200 m²/s²
150 m²/s²
100 m²/s²
46 m/s
44 m/s
42 m/s
40 m/s
38 m/s
36 m/s
34 m/s
32 m/s
30 m/s
28 m/s
26 m/s
24 m/s
22 m/s
20 m/s
16 m/s
12 m/s
8 m/s
4 m/s
30 m/s
28 m/s
26 m/s
24 m/s
22 m/s
20 m/s
18 m/s
16 m/s
14 m/s
12 m/s
10 m/s
8 m/s
6 m/s
4 m/s
2 m/s
3.0
2.8
2.6
2.4
2.2
2.0
1.8
1.6
1.4
1.2
1.0
0.8
0.6
0.4
0.2
15
14
13
12
11
10
9
8
7
6
5
4
3
2
1
90%
80%
70%
60%
50%
40%
30%
20%
10%
42
40
38
36
34
32
30
28
26
24
22
20
18
16
14
12
90+ cm
80-90 cm
70-80 cm
60-70 cm
50-60 cm
40-50 cm
30-40 cm
20-30 cm
10-20 cm
1-10 cm
Sneeuwval
Natte sneeuw
Regen
>120 mm
115 mm
110 mm
105 mm
100 mm
95 mm
90 mm
85 mm
80 mm
75 mm
70 mm
65 mm
60 mm
55 mm
50 mm
45 mm
45 mm
40 mm
35 mm
30 mm
25 mm
20 mm
15 mm
10 mm
5 mm
0.1 mm
960 hPa
880 hPa
800 hPa
720 hPa
640 hPa
560 hPa
584 gpdm
568 gpdm
552 gpdm
536 gpdm
520 gpdm
504 gpdm
488 gpdm
Extreem zwaar Noodweer Kans op onweer
15% 15% 5% 50% 15%

Dag




Kaart






35°
30°
25°
20°
15°
10°
-5°
-10°
-15°
-20°
-25°
-30°
-35°
33> m/s
29 m/s
25 m/s
21 m/s
17 m/s
14 m/s
11 m/s
8 m/s
5 m/s
3 m/s
0 m/s
Extreem zwaar Noodweer Kans op onweer
15% 15% 5% 50% 15%
>120 mm
115 mm
110 mm
105 mm
100 mm
95 mm
90 mm
85 mm
80 mm
75 mm
70 mm
65 mm
60 mm
55 mm
50 mm
45 mm
45 mm
40 mm
35 mm
30 mm
25 mm
20 mm
15 mm
10 mm
5 mm
0.1 mm
Onweer risico kaarten - De groene en gele kleur geeft de kans op onweer aan binnen 40 km van een punt. Oranje, rood en violet hebben hetzelfde niveau zoals je het ziet op estofex.org waaronder ook de kans op hagel en supercells.

dBZ - dBZ staat voor decibel ten opzichte van Z.

Cape - Convective available potential energy (CAPE), is de totale hoeveelheid energie die een luchtpakketje nodig heeft om zover mogelijk te stijgen in de atmosfeer.

K Index - K-Index wordt berekend door de Vertical Totals (VT) en het verschil tussen de 850 hPa temperatuur en de 700 hPa dauwpuntsdepressie (Tdd 700) bij elkaar op te tellen.

TT Index - Convectie index wordt gebruikt voor het voorspellen van zware buien of onweer.

WRF - The Weather Research and Forecasting (WRF) is een volgende generatie mesoscale numeriek